Weather Roundup
Issued by NWS Chicago, IL

Home | Current Version | Previous Version | Graphics & Text | Print | Product List | Glossary On
Versions: 1 2 3 4 5 6 7 8 9 10 11 12 13 14 15 16 17 18 19 20 21 22 23 24 25 26 27 28 29 30 31 32 33 34 35 36 37 38 39 40 41 42 43 44 45 46 47 48 49 50
000
NZUS59 KLOT 011408
HRRLOT

CHICAGO AREA WEATHER ROUNDUP
NATIONAL WEATHER SERVICE CHICAGO/ROMEOVILLE IL
900 AM CDT TUE SEP 01 2015

NOTE: "FAIR" INDICATES FEW OR NO CLOUDS BELOW 12,000 FEET WITH NO
SIGNIFICANT WEATHER AND/OR OBSTRUCTIONS TO VISIBILITY.

* THESE STATIONS ARE NOT UNDER NWS QUALITY CONTROL. THEY ALSO MAY NOT
  REPORT WEATHER SUCH AS PRECIPITATION OR FOG.

ILZ005-006-012>014-019>023-011500-
NORTHEAST ILLINOIS

CITY           SKY/WX    TMP DP  RH WIND       PRES   REMARKS
OHARE          MOSUNNY   77  72  84 SW6       30.05S
MIDWAY         MOSUNNY   78  70  76 S8        30.06S HX  80
AURORA         MOSUNNY   76  72  87 S6        30.07S FOG
LANSING*       SUNNY     75  71  85 SW7       30.08S
JOLIET*        SUNNY     77  73  86 S6        30.07S
WAUKEGAN       MOSUNNY   75  71  87 SW7       30.05R
DUPAGE AIRPORT LGT RAIN  76  71  85 S7        30.06S
WHEELING       SUNNY     77  71  82 S6        30.06S
KANKAKEE*      MOSUNNY   77  72  85 S6        30.08F
MORRIS*        MOSUNNY   75  72  91 S3        30.06S
LEWIS AIRPORT* MOSUNNY   75  71  87 S7        30.07S
NORTHERLY IS     N/A     77  69  76 S8          N/A
$$

WIZ051-052-058>065-066-070>072-011500-
SOUTHEAST WISCONSIN

CITY           SKY/WX    TMP DP  RH WIND       PRES   REMARKS
MILWAUKEE      MOSUNNY   76  70  82 SW7       30.03S
KENOSHA*       SUNNY     77  72  84 SW7       30.05S HAZE
RACINE*        MOSUNNY   77  70  79 SW7       30.05F
BURLINGTON     SUNNY     71  71  98 CALM      30.04S
WAUKESHA       SUNNY     73  70  88 SW3       30.05S
WEST BEND      SUNNY     73  70  88 CALM      30.03S
$$

INZ001>003-010>013-019-020-011500-
NORTHWEST INDIANA

CITY           SKY/WX    TMP DP  RH WIND       PRES   REMARKS
GARY*          MOSUNNY   77  70  78 SW7       30.07F
MICHIGAN CITY* NOT AVBL
RENSSELAER*    NOT AVBL
VALPARAISO     SUNNY     75  70  84 S6        30.10S
$$

LMZ740>746-011500-
SOUTHERN LAKE MICHIGAN

STATION/POSITION TIME  SKY/WX   TEMP WIND        PRES    VSBY
                                AIR  DIR/SP/G
                 (UTC)          (F)  (DEG/KT/KT) (MB)    (MI)
HARRISON CRIB    1300            72  170/ 14/ 15   N/A
BURNHAM HARBOR   1400            77  220/  6/  7   N/A
CALUMET HARBOR   1300            73  200/  7/  9   N/A
BURNS HARBOR     1300            74  180/  8/ 13 1018.6S
MICHIGAN CITY    1300            73  130/  8/  9   N/A
$$

ABBREVIATIONS USED IN REMARKS
   TC - TEMPERATURE IN CELSIUS
  WCI - WIND CHILL INDEX
   HX - HEAT INDEX
  VSB - VISIBILITY
$$



USA.gov is the U.S. government's official web portal to all federal, state and local government web resources and services.